Location: ActonStarParty
(42.4766°N, 71.4538°W)
Time: 11:22:19
(UTC-04:00)

ISS - All Passes

Search period start: 28 July 2015 00:00
Search period end: 07 August 2015 00:00
Orbit: 401 x 403 km, 51.6° (Epoch: 28 July)

Date Brightness Start Highest point End Pass type
(mag) Time Alt. Az. Time Alt. Az. Time Alt. Az.
28 Jul - 00:59:56 10° WNW 01:02:34 22° NNW 01:05:12 10° NE visible
28 Jul - 02:37:38 10° NW 02:39:50 17° N 02:42:03 10° NE visible
28 Jul - 04:13:57 10° NW 04:16:58 34° NNE 04:20:00 10° E visible
28 Jul - 05:50:23 10° WNW 05:53:25 35° SW 05:56:26 10° SSE daylight
28 Jul - 22:29:41 10° SW 22:32:49 46° SE 22:35:57 10° ENE night (unlit)
29 Jul - 00:06:26 10° W 00:09:20 29° NNW 00:12:16 10° NE visible
29 Jul - 01:44:21 10° NW 01:46:31 16° N 01:48:41 10° NE visible
29 Jul - 03:21:00 10° NW 03:23:45 24° NNE 03:26:30 10° ENE visible
29 Jul - 04:57:10 10° WNW 05:00:25 70° SW 05:03:40 10° SE visible
29 Jul - 21:37:04 10° S 21:39:43 24° SE 21:42:26 10° E visible
29 Jul - 23:12:51 10° WSW 23:16:00 44° NNW 23:19:09 10° NE night (unlit)
30 Jul - 00:50:42 10° NW 00:53:01 17° N 00:55:18 10° NE visible
30 Jul - 02:27:50 10° NW 02:30:17 19° NNE 02:32:45 10° ENE visible
30 Jul - 04:03:56 10° NW 04:07:10 63° NNE 04:10:24 10° ESE visible
30 Jul - 05:41:10 10° W 05:43:17 16° SW 05:45:19 10° S daylight
30 Jul - 20:45:05 10° SSE 20:46:31 13° SE 20:48:04 10° ESE visible
30 Jul - 22:19:18 10° WSW 22:22:33 79° NNW 22:25:49 10° NE visible
30 Jul - 23:56:47 10° WNW 23:59:20 21° NNW 00:01:54 10° NE visible
31 Jul - 01:34:22 10° NW 01:36:35 17° N 01:38:49 10° NE visible
31 Jul - 03:10:35 10° NW 03:13:39 37° NNE 03:16:42 10° E visible
31 Jul - 04:47:05 10° WNW 04:49:59 30° SW 04:52:52 10° SSE visible
31 Jul - 21:25:49 10° SW 21:28:59 53° SE 21:32:11 10° ENE visible
31 Jul - 23:02:41 10° W 23:05:32 27° NNW 23:08:23 10° NE visible
01 Aug - 00:40:33 10° NW 00:42:42 16° N 00:44:50 10° NE visible
01 Aug - 02:17:04 10° NW 02:19:52 26° NNE 02:22:40 10° E visible
01 Aug - 03:53:14 10° WNW 03:56:27 59° SW 03:59:38 10° SE visible
01 Aug - 20:32:31 10° SSW 20:35:19 27° SE 20:38:09 10° ENE visible
01 Aug - 22:08:30 10° W 22:11:36 40° NNW 22:14:42 10° NE visible
01 Aug - 23:46:21 10° NW 23:48:36 17° N 23:50:51 10° NE visible
02 Aug - 01:23:20 10° NW 01:25:50 20° NNE 01:28:20 10° ENE visible
02 Aug - 02:59:23 10° NW 03:02:38 71° NNE 03:05:52 10° ESE visible
02 Aug - 04:36:51 10° W 04:38:40 14° SW 04:40:23 10° SSW visible
02 Aug - 19:39:44 10° SSE 19:41:31 14° SE 19:43:24 10° E daylight
02 Aug - 21:14:19 10° WSW 21:17:33 70° NNW 21:20:48 10° NE visible
02 Aug - 22:51:51 10° WNW 22:54:21 20° NNW 22:56:51 10° NE visible
03 Aug - 00:29:20 10° NW 00:31:34 17° N 00:33:49 10° NE visible
03 Aug - 02:05:27 10° NW 02:08:33 40° NNE 02:11:39 10° E night (unlit)
03 Aug - 03:42:01 10° WNW 03:44:49 26° SW 03:47:34 10° SSE night (unlit)
03 Aug - 20:20:12 10° SW 20:23:24 60° SE 20:26:37 10° ENE daylight
03 Aug - 21:57:09 10° WNW 21:59:57 26° NNW 22:02:45 10° NE visible
03 Aug - 23:34:57 10° NW 23:37:05 16° N 23:39:14 10° NE visible
04 Aug - 01:11:22 10° NW 01:14:12 27° NNE 01:17:03 10° E visible
04 Aug - 02:47:32 10° WNW 02:50:43 53° SW 02:53:52 10° SE night (unlit)
04 Aug - 19:26:16 10° SSW 19:29:09 30° SE 19:32:04 10° ENE daylight
04 Aug - 21:02:21 10° W 21:05:26 37° NNW 21:08:31 10° NE visible
04 Aug - 22:40:12 10° NW 22:42:25 17° N 22:44:38 10° NE visible
05 Aug - 00:17:05 10° NW 00:19:36 21° NNE 00:22:09 10° ENE visible
05 Aug - 01:53:06 10° NW 01:56:21 78° NNE 01:59:34 10° ESE night (unlit)
05 Aug - 03:30:47 10° WSW 03:32:18 13° SW 03:33:43 10° SSW night (unlit)
05 Aug - 18:32:48 10° S 18:34:47 16° SE 18:36:51 10° E daylight
05 Aug - 20:07:34 10° WSW 20:10:48 65° NNW 20:14:03 10° NE daylight
05 Aug - 21:45:08 10° WNW 21:47:36 19° NNW 21:50:02 10° NE visible
05 Aug - 23:22:31 10° NW 23:24:46 17° N 23:27:03 10° NE visible
06 Aug - 00:58:34 10° NW 01:01:42 43° NNE 01:04:48 10° E visible
06 Aug - 02:35:10 10° W 02:37:53 24° SW 02:40:33 10° SSE night (unlit)
06 Aug - 19:12:51 10° SW 19:16:04 65° SE 19:19:18 10° ENE daylight
06 Aug - 20:49:50 10° WNW 20:52:37 25° NNW 20:55:22 10° NE visible
06 Aug - 22:27:35 10° NW 22:29:43 16° N 22:31:51 10° NE visible
